Time,TemperatureF,DewpointF,PressureIn,WindDirection,WindDirectionDegrees,WindSpeedMPH,WindSpeedGustMPH,Humidity,HourlyPrecipIn,Conditions,Clouds,dailyrainin,SolarRadiationWatts/m^2,SoftwareType,DateUTC
2013-07-21 00:00:00,68.0,34.0,-100.00,ESE,123,2.0,5.0,29,-99.99,,,-99.99,0.000000,,2013-07-21 06:00:00,
2013-07-21 02:00:00,68.0,32.0,-100.00,ESE,120,3.0,5.0,26,-99.99,,,-99.99,0.000000,,2013-07-21 08:00:00,
2013-07-21 02:52:00,68.0,32.0,-100.00,ESE,120,3.0,5.0,26,-99.99,,,-99.99,0.000000,,2013-07-21 08:52:00,
2013-07-21 03:00:00,68.0,32.0,-100.00,SE,142,3.0,6.0,26,-99.99,,,-99.99,0.000000,,2013-07-21 09:00:00,
2013-07-21 03:52:00,68.0,32.0,-100.00,SE,142,3.0,6.0,26,-99.99,,,-99.99,0.000000,,2013-07-21 09:52:00,
2013-07-21 04:00:00,63.0,32.0,-100.00,SSE,152,4.0,5.0,31,-99.99,,,-99.99,0.000000,,2013-07-21 10:00:00,
2013-07-21 04:52:00,63.0,32.0,-100.00,SSE,152,4.0,5.0,31,-99.99,,,-99.99,0.000000,,2013-07-21 10:52:00,
2013-07-21 05:00:00,63.0,33.0,-100.00,SE,132,3.0,7.0,32,-99.99,,,-99.99,0.000000,,2013-07-21 11:00:00,
2013-07-21 05:52:00,63.0,33.0,-100.00,SE,132,3.0,7.0,32,-99.99,,,-99.99,0.000000,,2013-07-21 11:52:00,
2013-07-21 06:00:00,62.0,35.0,-100.00,SE,125,2.0,4.0,36,-99.99,,,-99.99,0.010000,,2013-07-21 12:00:00,
2013-07-21 06:53:00,62.0,35.0,-100.00,SE,125,2.0,4.0,36,-99.99,,,-99.99,0.010000,,2013-07-21 12:53:00,
2013-07-21 07:00:00,64.0,34.0,-100.00,SSE,151,3.0,4.0,32,-99.99,,,-99.99,17.030001,,2013-07-21 13:00:00,
2013-07-21 08:00:00,68.0,35.0,-100.00,South,184,4.0,5.0,29,-99.99,,,-99.99,158.699997,,2013-07-21 14:00:00,
2013-07-21 09:00:00,76.0,34.0,-100.00,SSE,168,5.0,6.0,22,-99.99,,,-99.99,337.700012,,2013-07-21 15:00:00,
2013-07-21 09:53:00,76.0,34.0,-100.00,SSE,168,5.0,6.0,22,-99.99,,,-99.99,337.700012,,2013-07-21 15:53:00,
2013-07-21 11:00:00,84.0,37.0,-100.00,South,183,5.0,9.0,19,-99.99,,,-99.99,712.400024,,2013-07-21 17:00:00,
2013-07-21 14:00:00,96.0,35.0,-100.00,SE,125,4.0,10.0,12,-99.99,,,-99.99,975.000000,,2013-07-21 20:00:00,
2013-07-21 17:00:00,92.0,32.0,-100.00,North,10,24.0,-999.0,12,-99.99,,,-99.99,594.900024,,2013-07-21 23:00:00,
2013-07-21 17:53:00,92.0,32.0,-100.00,North,10,24.0,-999.0,12,-99.99,,,-99.99,594.900024,,2013-07-21 23:53:00,
2013-07-21 21:00:00,78.0,40.0,-100.00,NE,43,3.0,-999.0,25,-99.99,,,-99.99,24.860001,,2013-07-22 03:00:00,
2013-07-21 21:53:00,78.0,40.0,-100.00,NE,43,3.0,-999.0,25,-99.99,,,-99.99,24.860001,,2013-07-22 03:53:00,
2013-07-21 22:00:00,75.0,35.0,-100.00,SE,139,3.0,5.0,23,-99.99,,,-99.99,0.140000,,2013-07-22 04:00:00,
2013-07-21 23:00:00,74.0,38.0,-100.00,SSE,161,5.0,5.0,27,-99.99,,,-99.99,0.000000,,2013-07-22 05:00:00,
2013-07-21 23:52:00,74.0,38.0,-100.00,SSE,161,5.0,5.0,27,-99.99,,,-99.99,0.000000,,2013-07-22 05:52:00,